Location: Huntsville
(41.2590°N, 111.7678°W)
Time: 08:11:45
(UTC+00:00)

Explorer 7 - All Passes

Search period start: 25 September 2022 00:00
Search period end: 05 October 2022 00:00
Orbit: 482 x 668 km, 50.3° (Epoch: 24 September)

Date Brightness Start Highest point End Pass type
(mag) Time Alt. Az. Time Alt. Az. Time Alt. Az.
25 Sep - 00:09:52 10° WNW 00:13:37 25° N 00:17:11 10° NE daylight
25 Sep - 01:50:49 10° NW 01:54:53 37° NNE 01:58:43 10° E visible
25 Sep - 03:31:18 10° WNW 03:35:23 53° SW 03:39:15 10° SE visible
25 Sep - 19:11:10 10° S 19:14:15 17° SE 19:17:16 10° E daylight
25 Sep - 20:49:25 10° SW 20:54:12 85° SE 20:58:49 10° ENE daylight
25 Sep - 22:30:47 10° W 22:35:00 33° NNW 22:39:03 10° NE daylight
26 Sep - 00:12:34 10° NW 00:16:21 25° N 00:19:57 10° ENE daylight
26 Sep - 01:53:16 10° NW 01:57:30 48° NNE 02:01:28 10° E visible
26 Sep - 03:33:59 10° WNW 03:37:46 33° SW 03:41:20 10° SSE visible
26 Sep - 19:12:33 10° S 19:16:31 26° SE 19:20:24 10° ENE daylight
26 Sep - 20:51:55 10° WSW 20:56:42 70° NNW 21:01:17 10° NE daylight
26 Sep - 22:33:37 10° WNW 22:37:42 28° NNW 22:41:35 10° NE daylight
27 Sep - 00:15:11 10° NW 00:19:04 27° N 00:22:45 10° ENE daylight
27 Sep - 01:55:43 10° NW 02:00:03 68° NNE 02:04:07 10° ESE visible
27 Sep - 03:36:52 10° W 03:40:03 21° SW 03:43:05 10° S visible
27 Sep - 19:14:21 10° SSW 19:18:50 39° SE 19:23:12 10° ENE daylight
27 Sep - 20:54:33 10° WSW 20:59:14 52° NNW 21:03:44 10° NE daylight
27 Sep - 22:36:27 10° WNW 22:40:23 26° N 22:44:10 10° NE daylight
28 Sep - 00:17:43 10° NW 00:21:45 31° NNE 00:25:35 10° ENE daylight
28 Sep - 01:58:11 10° WNW 02:02:33 83° SW 02:06:37 10° SE visible
28 Sep - 03:40:16 10° W 03:42:16 13° SW 03:44:12 10° SSW visible
28 Sep - 17:40:36 10° SE 17:41:29 10° SE 17:42:22 10° ESE daylight
28 Sep - 19:16:28 10° SW 19:21:12 58° SE 19:25:50 10° ENE daylight
28 Sep - 20:57:18 10° W 21:01:49 40° NNW 21:06:10 10° NE daylight
28 Sep - 22:39:12 10° WNW 22:43:06 26° N 22:46:51 10° NE daylight
29 Sep - 00:20:11 10° NW 00:24:24 38° NNE 00:28:23 10° E daylight
29 Sep - 02:00:42 10° WNW 02:04:57 54° SW 02:08:56 10° SE visible
29 Sep - 17:40:35 10° S 17:43:40 17° SE 17:46:45 10° E daylight
29 Sep - 19:18:47 10° SW 19:23:37 84° SSE 19:28:21 10° ENE daylight
29 Sep - 21:00:06 10° W 21:04:27 34° NNW 21:08:38 10° NE daylight
29 Sep - 22:41:54 10° NW 22:45:49 26° N 22:49:35 10° ENE daylight
30 Sep - 00:22:37 10° NW 00:27:00 49° NNE 00:31:07 10° E daylight
30 Sep - 02:03:20 10° WNW 02:07:18 35° SW 02:11:01 10° SSE visible
30 Sep - 17:41:56 10° S 17:45:55 26° SE 17:49:52 10° ENE daylight
30 Sep - 19:21:16 10° WSW 19:26:05 71° NNW 19:30:47 10° NE daylight
30 Sep - 21:02:55 10° WNW 21:07:06 29° NNW 21:11:08 10° NE daylight
30 Sep - 22:44:29 10° NW 22:48:31 28° N 22:52:22 10° ENE daylight
01 Oct - 00:25:03 10° NW 00:29:33 68° NNE 00:33:44 10° ESE daylight
01 Oct - 02:06:11 10° W 02:09:33 22° SW 02:12:47 10° S visible
01 Oct - 17:43:43 10° SSW 17:48:13 38° SE 17:52:39 10° ENE daylight
01 Oct - 19:23:52 10° WSW 19:28:36 53° NNW 19:33:14 10° NE daylight
01 Oct - 21:05:43 10° WNW 21:09:47 27° N 21:13:43 10° NE daylight
01 Oct - 22:47:00 10° NW 22:51:11 32° NNE 22:55:10 10° E daylight
02 Oct - 00:27:29 10° WNW 00:32:01 85° SW 00:36:14 10° SE daylight
02 Oct - 02:09:27 10° W 02:11:45 14° SW 02:13:59 10° SSW visible
02 Oct - 16:10:08 10° SE 16:10:52 10° SE 16:11:35 10° ESE daylight
02 Oct - 17:45:48 10° SW 17:50:32 57° SE 17:55:15 10° ENE daylight
02 Oct - 19:26:35 10° W 19:31:10 41° NNW 19:35:39 10° NE daylight
02 Oct - 21:08:28 10° WNW 21:12:29 26° N 21:16:22 10° ENE daylight
02 Oct - 22:49:27 10° NW 22:53:49 39° NNE 22:57:57 10° E daylight
03 Oct - 00:30:00 10° WNW 00:34:25 56° SW 00:38:32 10° SE daylight
03 Oct - 16:09:58 10° SSE 16:13:01 17° SE 16:16:04 10° E daylight
03 Oct - 17:48:05 10° SW 17:52:56 83° SE 17:57:44 10° ENE daylight
03 Oct - 19:29:21 10° W 19:33:47 34° NNW 19:38:05 10° NE daylight
03 Oct - 21:11:08 10° NW 21:15:10 27° N 21:19:05 10° ENE daylight
03 Oct - 22:51:52 10° NW 22:56:23 50° NNE 23:00:39 10° E daylight
04 Oct - 00:32:36 10° WNW 00:36:43 36° SW 00:40:37 10° SSE daylight
04 Oct - 16:11:17 10° S 16:15:13 25° SE 16:19:11 10° ENE daylight
04 Oct - 17:50:32 10° WSW 17:55:23 72° NNW 18:00:11 10° NE daylight
04 Oct - 19:32:09 10° WNW 19:36:25 30° NNW 19:40:35 10° NE daylight
04 Oct - 21:13:42 10° NW 21:17:51 29° N 21:21:50 10° ENE daylight
04 Oct - 22:54:17 10° NW 22:58:54 68° NNE 23:03:15 10° ESE daylight
